Regional Weather Roundup
Issued by NWS Jackson, KY

Home | Current Version | Previous Version | Text Only | Print | Product List | Glossary On
Versions: 1 2 3 4 5 6 7 8 9 10 11 12 13 14 15 16 17 18 19 20 21 22 23 24 25 26 27
000
ASUS43 KJKL 240210
RWRJKL

EAST KENTUCKY HOURLY WEATHER ROUNDUP
NATIONAL WEATHER SERVICE JACKSON KY
1000 PM EDT TUE AUG 23 2016

NOTE: "FAIR" INDICATES FEW OR NO CLOUDS BELOW 12,000 FEET WITH
NO SIGNIFICANT WEATHER AND/OR OBSTRUCTIONS TO VISIBILITY.

* THESE REPORTS ARE NOT UNDER NWS QUALITY CONTROL AND MAY NOT
  REPORT WEATHER SUCH AS PRECIPITATION AND FOG.

KYZ079-080-083-085-087-088-110-112-115-119-120-240300
...EASTERN KENTUCKY...

CITY           SKY/WX    TMP DP  RH WIND       PRES   REMARKS
JACKSON        CLEAR     74  57  55 CALM      30.26S
LONDON         CLOUDY    71  62  73 CALM      30.25S
SOMERSET*      CLEAR     70  68  94 CALM      30.25S
MONTICELLO*    MOCLDY   N/A N/A N/A W10       30.25S
WILLIAMSBURG*  CLOUDY    68  68 100 CALM      30.26R
MIDDLESBORO*   PTCLDY    69  65  89 CALM      30.27R
HARLAN APT*      N/A     68  64  88 CALM      30.28S
PIKE CO APT*     N/A     73  62  68 NE5       30.28S
BIG SANDY APT* CLEAR     70  65  85 CALM      30.27S
MOREHEAD APT*  PTCLDY    73  61  64 CALM      30.26S
ASHLAND*       PTCLDY    70  64  83 CALM      30.22F
$$

KYZ035-036-041-042-044-050-067-078-099-240300
...CENTRAL KENTUCKY...

CITY           SKY/WX    TMP DP  RH WIND       PRES   REMARKS
MT STERLING*   CLEAR     68  66  94 CALM      30.26R
FLEMING/MASON* MOCLDY    71  63  76 SE3       30.26R
DANVILLE*      MOCLDY    70  66  88 CALM      30.25S
LEXINGTON      CLEAR     71  64  78 CALM      30.24R
FRANKFORT      CLOUDY    69  63  81 CALM      30.22R
LOUISVILLE     CLOUDY    77  62  59 SE3       30.20R
LEBANON*         N/A     72  68  88 CALM      30.23S
GLASGOW*       MOCLDY    72  67  86 CALM      30.21S
BOWLING GREEN  CLEAR     76  66  71 CALM      30.20R
$$

KYZ091>093-OHZ055-061-077-WVZ005-015-034-035-042-240300
...SOUTHERN OHIO/WEST VIRGINIA...

CITY           SKY/WX    TMP DP  RH WIND       PRES   REMARKS
COVINGTON      MOCLDY    70  62  76 CALM      30.23R
COLUMBUS       CLOUDY    72  60  66 E3        30.24R
DAYTON         CLOUDY    71  59  65 SE7       30.25R
WILMINGTON     PTCLDY    65  62  90 CALM      30.25R
HUNTINGTON     MOCLDY    69  64  84 CALM      30.24
CHARLESTON     CLOUDY    69  65  86 CALM      30.26R
PINEVILLE*     PTCLDY    66  62  86 MISG      30.35R
BECKLEY        CLOUDY    68  60  75 S7        30.35
BLUEFIELD      PTCLDY    70  58  65 S7        30.37R
LOGAN CO APT*    N/A     73  64  73 CALM      30.28S
$$

VAZ002-007-008-TNZ017-027-036-066-071-240300
...SOUTHWEST VIRGINIA/EAST TENNESSEE...

CITY           SKY/WX    TMP DP  RH WIND       PRES   REMARKS
WISE*          CLEAR     70  52  52 CALM      30.36S
JONESVILLE*      N/A     68  66  94 CALM      30.29S
ABINGDON*      CLOUDY    70  65  86 CALM      30.32S
BRISTOL        PTCLDY    70  64  81 CALM      30.28R
MORRISTOWN*    MOCLDY    75  66  73 CALM      30.25S
SEVIERVILLE*   CLEAR     73  66  78 CALM      30.24S
KNOXVILLE      MOCLDY    75  66  73 E3        30.22F
OAK RIDGE      PTCLDY    74  66  76 CALM      30.24S
CROSSVILLE     CLOUDY    71  66  84 CALM      30.29R
NASHVILLE      MOCLDY    78  70  76 CALM      30.20S
$$

...KEY TO REMARKS...
VSB - VISIBILITY IN MILES
WCI - WIND CHILL INDEX
HX  - HEAT INDEX

$$




USA.gov is the U.S. government's official web portal to all federal, state and local government web resources and services.